Regional Weather Roundup
Issued by NWS

Home | Current Version | Previous Version | Text Only | Print | Product List | Glossary Off
Versions: 1 2 3 4 5 6 7 8 9 10 11 12 13 14 15 16 17 18 19 20 21 22 23 24 25 26 27 28 29 30 31 32 33 34 35 36 37 38 39 40 41 42 43 44 45 46 47 48 49 50

000
ASUS45 KCYS 300610
RWRWY

WYOMING REGIONAL WEATHER ROUNDUP
NATIONAL WEATHER SERVICE CHEYENNE WY
1200 AM MDT TUE SEP 30 2014

NOTE:  "FAIR" INDICATES FEW OR NO CLOUDS BELOW 12,000 FEET
WITH NO SIGNIFICANT WEATHER AND/OR OBSTRUCTIONS TO VISIBILITY.

WYZ001-300700-
YELLOWSTONE NATIONAL PARK

CITY           SKY/WX    TMP DP  RH WIND       PRES   REMARKS
LK YELLOWSTONE   N/A     39  36  89 VRB3      30.03R
6HR MIN TEMP:  38; 6HR MAX TEMP:  44;

W YELLOWSTONE  NOT AVBL

$$
WYZ002>013-054>058-071-098>099-300700-
NORTHERN WYOMING

CITY           SKY/WX    TMP DP  RH WIND       PRES   REMARKS
JACKSON        CLOUDY    45  41  87 W5        30.00R
CODY           PTCLDY    54  37  54 W14G25    29.84S
GREYBULL       CLOUDY    52  48  86 W7        29.80S
6HR MIN TEMP:  52; 6HR MAX TEMP:  66;

WORLAND        CLOUDY    51  46  83 S3        29.81S
6HR MIN TEMP:  51; 6HR MAX TEMP:  65;

SHERIDAN       CLOUDY    53  50  89 N6        29.78F
6HR MIN TEMP:  51; 6HR MAX TEMP:  62;

BUFFALO        CLOUDY    51  47  86 NW8       29.80F
6HR MIN TEMP:  51; 6HR MAX TEMP:  61;

GILLETTE       CLOUDY    52  49  89 S7        29.80F
6HR MIN TEMP:  51; 6HR MAX TEMP:  60;

HULETT         FOG       50  48  93 CALM      29.82  VSB 3/4
NEWCASTLE      HVY RAIN  52  52 100 NW6       29.81

$$
WYZ014>020-022>026-101>103-300700-
CENTRAL WYOMING

CITY           SKY/WX    TMP DP  RH WIND       PRES   REMARKS
BIG PINEY      CLOUDY    42  38  85 SW3       30.04R
6HR MIN TEMP:  40; 6HR MAX TEMP:  54;

PINEDALE       CLOUDY    43  39  87 NW3       30.05R
DUBOIS         MOCLDY    41  34  75 NW9       29.97S
LANDER         MOCLDY    46  37  71 NE6       29.88S
6HR MIN TEMP:  46; 6HR MAX TEMP:  62;

RIVERTON       CLOUDY    50  36  58 W16       29.88F
6HR MIN TEMP:  50; 6HR MAX TEMP:  61;

CASPER         CLOUDY    53  41  63 SW12      29.81F
6HR MIN TEMP:  51; 6HR MAX TEMP:  58;

DOUGLAS        LGT RAIN  51  46  83 SE9       29.81F
6HR MIN TEMP:  51; 6HR MAX TEMP:  60; 6HR PCP: TRACE;


$$
WYZ021-027>030-104>119-300700-
SOUTHERN WYOMING

CITY           SKY/WX    TMP DP  RH WIND       PRES   REMARKS
EVANSTON       CLOUDY    41  37  86 SW10      30.06F
6HR MIN TEMP:  39; 6HR MAX TEMP:  52;

KEMMERER       MOCLDY    37  36  93 CALM      30.06R
FORT BRIDGER     N/A     44  40  88 W10       30.09S
ROCK SPRINGS   PTCLDY    43  39  86 SW14      30.03R
6HR MIN TEMP:  43; 6HR MAX TEMP:  50;

DIXON          CLOUDY    47  40  77 SW7       30.04S
RAWLINS        CLOUDY    46  38  73 W22G29    29.95F
6HR MIN TEMP:  46; 6HR MAX TEMP:  52;

SARATOGA         N/A     45  37  76 W18       29.97F
LARAMIE        LGT RAIN  43  39  86 W9        29.91F
6HR MIN TEMP:  40; 6HR MAX TEMP:  44; 6HR PCP:  0.12;

CHEYENNE       LGT RAIN  46  42  86 NW13      29.86F
6HR MIN TEMP:  44; 6HR MAX TEMP:  51; 6HR PCP:  0.45;

TORRINGTON     RAIN      50  49  96 W21G26    29.72F
6HR MIN TEMP:  50; 6HR MAX TEMP:  59; 6HR PCP:  0.94;

PINE BLUFFS    RAIN      45  43  93 W14G21    29.84R

$$


USA.gov is the U.S. government's official web portal to all federal, state and local government web resources and services.